Погода в Портороже

Словения     45°30′50″N   13°35′34″E
темп.,
°C
ветер,
м/с
пор.,
м/с
влажн.,
%
обл.,
%
осадки,
мм/ч
давл.,
гПа
погр.,
м
11 апреля, вс
вс1123:00+12ю4781100 0.1 1022461
02:00+11вюв3581100 0.5 1020290
05:00+11ю5787100 0.5 1019516
08:00+10юв3893100 5.3 1020447
11:00+11юв71386100 4.5 1020670
14:00+12ююв81384100 5.1 1019711
17:00+12ююв81388100 4.4 1019655
20:00+12ююв91487100 5.7 1019603
12 апреля, пн
пн1223:00+12ююв9138997 0.5 1020487
02:00+12ю7119399 0.7 1020424
05:00+12ююв71191100 0.3 1018422
08:00+12ююв81492100 0.7 1018573
11:00+12ю71196100 4.4 1017470
14:00+12ю5894100 13.9 1017349
17:00+12ююв5892100 3.7 1016396
20:00+12вюв4992100 7.4 1016309
13 апреля, вт
вт1323:00+13юв51189100 1.6 1015414
02:00+12юв81493100 10.4 1014694
05:00+10в81188100 13.5 1013506
08:00+8св141781100 25.3 1017885
11:00+6св111684100 10.4 10191060
14:00+8св91371100 11.7 1019975
17:00+9всв7966100 0.0 10191177
20:00+8всв7868100 0.1 1020737
14 апреля, ср
ср1423:00+9ссв4566100 0.0 1022640
02:00+9ссз5579100 1.4 1022527
05:00+8сз4584100 1.6 1022481
08:00+8с1181100 2.4 1022384
11:00+10вюв125499 0.6 1023501
14:00+10з325220 0.6 1022735
17:00+10с115110 0.0 1021435
20:00+10с224946 0.0 1021274
15 апреля, чт
чт1523:00+9вюв456482 0.0 1022197
02:00+8ююв3368100 0.4 1022167
05:00+7вюв226681 0.3 1022138
08:00+7вюв116218 0.4 1022145
11:00+9ссз22625 0.0 1023410
14:00+10сз33615 0.0 1022365
17:00+10з32560 0.0 1021331
20:00+10з11564 0.0 1021194